STARLINK-34547, 64777

Orbit data source: Space-Track

STARLINK-34547, 64777 is a payload satellite owned by SpaceX/Seattle (US) in LEO that was launched on Tue, 08 Jul 2025 UTC via an FALCON 9 launch vehicle from the Air Force Eastern Test Range (AFETR). Payload-class satellites include a variety of spacecraft equipped with specific instruments for various scientific and technological missions. These include communications satellites like Starlink; space stations such as the ISS; scientific satellites like the Hubble; Earth observation satellites from companies like Planet Labs, Umbra, and HawkEye 360; GPS; miniature CubeSats for education and research; and military/defense satellites.

Loading next visibility...
Identifier
64777, 2025-147Y
Orbit
LEO
Country
Flag of USUS
Related business
Manufacturer
SpaceX/Seattle
Mission
Operational spacecraft
Bus & Motor
STARLINK V2MO, Unknown motor
Mass
575 kg wet, ~530 kg dry
Launch date (UTC)
2025-07-08 (2 months ago)
Launch vehicle
FALCON 9
Launch site
Air Force Eastern Test Range (AFETR)
Object type
Payload
Rocket body
Debris
Shape & HBR
Unknown
Radar Cross Section
Large (>1 m²)

Expand to show TLE details & history
Last TLE update: 13 hours ago

TLE from 13 hours ago
0 STARLINK-34547
1 64777U 25147Y   25242.76296625  .00057228  00000-0  14301-2 0  9993
2 64777  53.1601  50.7494 0001011  85.5731 274.5389 15.39616243  9445
Epoch: 2025-08-30T18:18Z
TLE epoch observation values (Epoch: 2025-08-30T18:18:40.284Z)
Latitude
-0.00003°
Longitude
156.88893°
Altitude
448.092 km
Speed
7.645 km/s
True Right ascension
03h 22m 59s
True Declination
0° 00' 00"
Sunlit
Object was in daylight at epoch
Visualization orbit readout
Latitude
Unknown
Longitude
Unknown
Altitude
Unknown
Speed
Unknown
Apparent Right ascension
Unknown
Apparent Declination
Unknown
Sunlit
N/A
Visualization observer readout
Local Sidereal Time
23:21:40
Azimuth
Unknown
Elevation
Unknown
Doppler factor
Unknown
Orbital elements
Apogee altitude
448.191 km
Perigee altitude
446.811 km
Semi-major axis
6,825.638 km
Eccentricity
0.0001
Inclination
53.1601°
RAAN
50.7494°
Arg. of periapsis
85.5731°
True anomaly
274.52735°
Mean anomaly
274.5389°
Eccentric anomaly
274.53313°
Mean motion
3.84883 °/min
Orbital period
93.54 mins
BSTAR
0.0014301
Loading maneuver chart data...
Computing Atmospheric mass density...
Loading historical data...
Loading historical data...
Loading historical data...
Loading historical data...
Loading historical data...
Loading historical data...
Loading historical data...

Documentation

Showing up to 5 results
|